| time (UTC) | temp F | wind direction | speed MPH | gust MPH | rain 1hr in | rain 24hr in | rain mn in | humidity % | barometer mb |
| 20260905133933 | 85 | 152 | 2.0 | 4.0 | 0.00 | 0.00 | 0.00 | 83 | 1011.6 |
| 20260905133437 | 85 | 125 | 2.0 | 4.0 | 0.00 | 0.00 | 0.00 | 84 | 1011.5 |
| 20260905132933 | 84 | 135 | 2.0 | 4.0 | 0.00 | 0.00 | 0.00 | 86 | 1011.4 |
| 20260905132436 | 83 | 156 | 2.0 | 4.0 | 0.00 | 0.00 | 0.00 | 87 | 1011.4 |
| 20260905131437 | 82 | 97 | 3.0 | 4.0 | 0.00 | 0.00 | 0.00 | 89 | 1011.2 |
| 20260905130933 | 82 | 103 | 2.0 | 4.0 | 0.00 | 0.00 | 0.00 | 89 | 1011.1 |
| 20260905125932 | 82 | 163 | 2.0 | 3.0 | 0.00 | 0.00 | 0.00 | 89 | 1011.0 |
| 20260905125422 | 82 | 101 | 2.0 | 3.0 | 0.00 | 0.00 | 0.00 | 89 | 1011.0 |
| 20260905124918 | 82 | 136 | 2.0 | 3.0 | 0.00 | 0.00 | 0.00 | 89 | 1010.9 |
| 20260905123903 | 82 | 171 | 2.0 | 3.0 | 0.00 | 0.00 | 0.00 | 89 | 1010.7 |
| 20260905122903 | 82 | 137 | 2.0 | 4.0 | 0.00 | 0.00 | 0.00 | 90 | 1010.7 |
| 20260905122408 | 82 | 154 | 2.0 | 4.0 | 0.00 | 0.00 | 0.00 | 90 | 1010.6 |
| 20260905121903 | 82 | 159 | 2.0 | 4.0 | 0.00 | 0.00 | 0.00 | 90 | 1010.5 |
| 20260905121408 | 82 | 153 | 2.0 | 4.0 | 0.00 | 0.00 | 0.00 | 90 | 1010.5 |
| 20260905120904 | 82 | 161 | 2.0 | 3.0 | 0.00 | 0.00 | 0.00 | 90 | 1010.5 |
| 20260905115903 | 82 | 168 | 2.0 | 3.0 | 0.00 | 0.00 | 0.00 | 89 | 1010.4 |
| 20260905115406 | 82 | 300 | 2.0 | 3.0 | 0.00 | 0.00 | 0.00 | 89 | 1010.3 |
| 20260905114902 | 82 | 171 | 3.0 | 4.0 | 0.00 | 0.00 | 0.00 | 89 | 1010.2 |
| 20260905114406 | 82 | 166 | 3.0 | 4.0 | 0.00 | 0.00 | 0.00 | 89 | 1010.2 |
| 20260905113902 | 82 | 155 | 3.0 | 4.0 | 0.00 | 0.00 | 0.00 | 89 | 1010.2 |
| 20260905112849 | 82 | 135 | 3.0 | 4.0 | 0.00 | 0.00 | 0.00 | 89 | 1010.1 |
| 20260905111850 | 82 | 156 | 3.0 | 4.0 | 0.00 | 0.00 | 0.00 | 89 | 1010.1 |
| 20260905110850 | 82 | 165 | 3.0 | 4.0 | 0.00 | 0.00 | 0.00 | 90 | 1010.2 |
| 20260905110349 | 82 | 137 | 3.0 | 4.0 | 0.00 | 0.00 | 0.00 | 90 | 1010.2 |
| 20260905105849 | 82 | 152 | 3.0 | 4.0 | 0.00 | 0.00 | 0.00 | 90 | 1010.2 |
| 20260905104850 | 82 | 155 | 2.0 | 4.0 | 0.00 | 0.00 | 0.00 | 90 | 1010.4 |
| 20260905104350 | 82 | 112 | 3.0 | 4.0 | 0.00 | 0.00 | 0.00 | 90 | 1010.3 |
| 20260905103850 | 82 | 133 | 3.0 | 4.0 | 0.00 | 0.00 | 0.00 | 90 | 1010.4 |
| 20260905103340 | 82 | 149 | 3.0 | 4.0 | 0.00 | 0.00 | 0.00 | 90 | 1010.3 |
| 20260905102824 | 82 | 143 | 3.0 | 4.0 | 0.00 | 0.00 | 0.00 | 90 | 1010.4 |
| 20260905102322 | 81 | 117 | 2.0 | 4.0 | 0.00 | 0.00 | 0.00 | 90 | 1010.3 |
| 20260905101821 | 81 | 134 | 2.0 | 3.0 | 0.00 | 0.00 | 0.00 | 90 | 1010.3 |
| 20260905101322 | 81 | 154 | 2.0 | 3.0 | 0.00 | 0.00 | 0.00 | 90 | 1010.2 |
| 20260905100822 | 82 | 153 | 2.0 | 4.0 | 0.00 | 0.00 | 0.00 | 90 | 1010.2 |
| 20260905100322 | 82 | 159 | 2.0 | 4.0 | 0.00 | 0.00 | 0.00 | 90 | 1010.2 |
| 20260905095822 | 82 | 164 | 2.0 | 3.0 | 0.00 | 0.00 | 0.00 | 90 | 1010.2 |
| 20260905094822 | 82 | 191 | 2.0 | 4.0 | 0.00 | 0.00 | 0.00 | 90 | 1010.2 |
| 20260905094323 | 82 | 175 | 3.0 | 4.0 | 0.00 | 0.00 | 0.00 | 90 | 1010.2 |
| 20260905093822 | 82 | 154 | 3.0 | 3.0 | 0.00 | 0.00 | 0.00 | 90 | 1010.2 |
| 20260905093323 | 82 | 146 | 3.0 | 4.0 | 0.00 | 0.00 | 0.00 | 90 | 1010.3 |
| 20260905092822 | 82 | 169 | 2.0 | 4.0 | 0.00 | 0.00 | 0.00 | 90 | 1010.4 |
| 20260905092323 | 82 | 109 | 2.0 | 3.0 | 0.00 | 0.00 | 0.00 | 90 | 1010.5 |
| 20260905091810 | 82 | 149 | 2.0 | 3.0 | 0.00 | 0.00 | 0.00 | 90 | 1010.5 |
| 20260905091308 | 82 | 142 | 2.0 | 3.0 | 0.00 | 0.00 | 0.00 | 90 | 1010.5 |
| 20260905090808 | 82 | 143 | 2.0 | 3.0 | 0.00 | 0.00 | 0.00 | 90 | 1010.5 |
| 20260905090308 | 82 | 161 | 2.0 | 3.0 | 0.00 | 0.00 | 0.00 | 90 | 1010.5 |
| 20260905085808 | 82 | 186 | 2.0 | 3.0 | 0.00 | 0.00 | 0.00 | 90 | 1010.5 |
| 20260905085308 | 82 | 181 | 2.0 | 2.0 | 0.00 | 0.00 | 0.00 | 89 | 1010.4 |
| 20260905084808 | 82 | 168 | 2.0 | 2.0 | 0.00 | 0.00 | 0.00 | 89 | 1010.5 |
| 20260905083808 | 82 | 170 | 2.0 | 2.0 | 0.00 | 0.00 | 0.00 | 89 | 1010.5 |
| 20260905083309 | 82 | 196 | 2.0 | 2.0 | 0.00 | 0.00 | 0.00 | 89 | 1010.4 |
| 20260905082809 | 82 | 160 | 2.0 | 2.0 | 0.00 | 0.00 | 0.00 | 89 | 1010.5 |
| 20260905082307 | 82 | 159 | 2.0 | 2.0 | 0.00 | 0.00 | 0.00 | 89 | 1010.4 |
| 20260905081807 | 82 | 162 | 2.0 | 2.0 | 0.00 | 0.00 | 0.00 | 88 | 1010.5 |
| 20260905081307 | 82 | 167 | 2.0 | 2.0 | 0.00 | 0.00 | 0.00 | 89 | 1010.6 |
| 20260905080806 | 82 | 159 | 2.0 | 2.0 | 0.00 | 0.00 | 0.00 | 89 | 1010.6 |
| 20260905080307 | 82 | 198 | 2.0 | 2.0 | 0.00 | 0.00 | 0.00 | 89 | 1010.6 |
| 20260905075753 | 82 | 174 | 2.0 | 3.0 | 0.00 | 0.00 | 0.00 | 89 | 1010.6 |
| 20260905075253 | 82 | 158 | 2.0 | 3.0 | 0.00 | 0.00 | 0.00 | 89 | 1010.6 |
| 20260905074754 | 83 | 166 | 2.0 | 4.0 | 0.00 | 0.00 | 0.00 | 89 | 1010.6 |
| 20260905074254 | 83 | 169 | 2.0 | 4.0 | 0.00 | 0.00 | 0.00 | 89 | 1010.7 |
| 20260905072754 | 83 | 208 | 2.0 | 3.0 | 0.00 | 0.00 | 0.00 | 89 | 1010.8 |
| 20260905072255 | 83 | 148 | 2.0 | 3.0 | 0.00 | 0.00 | 0.00 | 89 | 1010.9 |
| 20260905071755 | 83 | 165 | 2.0 | 3.0 | 0.00 | 0.00 | 0.00 | 89 | 1011.0 |
| 20260905071255 | 83 | 164 | 2.0 | 3.0 | 0.00 | 0.00 | 0.00 | 89 | 1010.9 |
| 20260905070754 | 83 | 133 | 2.0 | 3.0 | 0.00 | 0.00 | 0.00 | 88 | 1011.0 |
| 20260905070254 | 83 | 171 | 2.0 | 4.0 | 0.00 | 0.00 | 0.00 | 88 | 1011.0 |
| 20260905065754 | 83 | 175 | 2.0 | 4.0 | 0.00 | 0.00 | 0.00 | 88 | 1011.0 |
| 20260905065240 | 83 | 146 | 2.0 | 3.0 | 0.00 | 0.00 | 0.00 | 88 | 1011.0 |
| 20260905064726 | 83 | 157 | 2.0 | 3.0 | 0.00 | 0.00 | 0.00 | 88 | 1011.0 |
| 20260905064227 | 83 | 126 | 2.0 | 3.0 | 0.00 | 0.00 | 0.00 | 88 | 1011.0 |
| 20260905063727 | 83 | 168 | 2.0 | 3.0 | 0.00 | 0.00 | 0.00 | 88 | 1011.0 |
| 20260905063226 | 83 | 173 | 2.0 | 3.0 | 0.00 | 0.00 | 0.00 | 88 | 1011.1 |
| 20260905062225 | 83 | 172 | 2.0 | 3.0 | 0.00 | 0.00 | 0.00 | 87 | 1011.1 |
| 20260905061727 | 83 | 183 | 2.0 | 3.0 | 0.00 | 0.00 | 0.00 | 87 | 1011.0 |
| 20260905061225 | 83 | 149 | 2.0 | 3.0 | 0.00 | 0.00 | 0.00 | 87 | 1011.1 |
| 20260905060728 | 84 | 151 | 2.0 | 3.0 | 0.00 | 0.00 | 0.00 | 87 | 1011.1 |
| 20260905060225 | 84 | 141 | 2.0 | 3.0 | 0.00 | 0.00 | 0.00 | 87 | 1011.1 |
| 20260905054229 | 84 | 167 | 2.0 | 4.0 | 0.00 | 0.00 | 0.00 | 86 | 1011.0 |
| 20260905053712 | 84 | 132 | 2.0 | 4.0 | 0.00 | 0.00 | 0.00 | 86 | 1011.1 |
| 20260905053215 | 84 | 115 | 2.0 | 4.0 | 0.00 | 0.00 | 0.00 | 86 | 1011.2 |
| 20260905052216 | 84 | 121 | 2.0 | 3.0 | 0.00 | 0.00 | 0.00 | 86 | 1011.3 |
| 20260905051215 | 84 | 107 | 2.0 | 3.0 | 0.00 | 0.00 | 0.00 | 85 | 1011.3 |
| 20260905050713 | 84 | 135 | 2.0 | 3.0 | 0.00 | 0.00 | 0.00 | 85 | 1011.3 |
| 20260905050215 | 84 | 131 | 2.0 | 3.0 | 0.00 | 0.00 | 0.00 | 85 | 1011.2 |
| 20260905045713 | 85 | 134 | 2.0 | 4.0 | 0.00 | 0.00 | 0.00 | 85 | 1011.3 |
| 20260905044711 | 85 | 146 | 2.0 | 4.0 | 0.00 | 0.00 | 0.00 | 84 | 1011.3 |
| 20260905044210 | 85 | 168 | 2.0 | 6.0 | 0.00 | 0.00 | 0.00 | 84 | 1011.3 |
| 20260905043711 | 85 | 132 | 2.0 | 6.0 | 0.00 | 0.00 | 0.00 | 84 | 1011.3 |
| 20260905043215 | 85 | 155 | 2.0 | 4.0 | 0.00 | 0.00 | 0.00 | 84 | 1011.3 |
| 20260905042711 | 85 | 160 | 2.0 | 4.0 | 0.00 | 0.00 | 0.00 | 84 | 1011.4 |
| 20260905042210 | 85 | 153 | 2.0 | 6.0 | 0.00 | 0.00 | 0.00 | 83 | 1011.5 |
| 20260905041210 | 85 | 130 | 2.0 | 4.0 | 0.00 | 0.00 | 0.00 | 83 | 1011.5 |
| 20260905040210 | 85 | 172 | 2.0 | 4.0 | 0.00 | 0.00 | 0.00 | 83 | 1011.4 |
| 20260905035712 | 85 | 169 | 2.0 | 4.0 | 0.00 | 0.00 | 0.00 | 83 | 1011.4 |
| 20260905035210 | 85 | 108 | 2.0 | 4.0 | 0.00 | 0.00 | 0.00 | 83 | 1011.5 |
| 20260905034712 | 85 | 141 | 2.0 | 4.0 | 0.00 | 0.00 | 0.00 | 82 | 1011.6 |
| 20260905033702 | 85 | 127 | 2.0 | 5.0 | 0.00 | 0.00 | 0.00 | 82 | 1011.5 |
| 20260905033157 | 85 | 140 | 2.0 | 4.0 | 0.00 | 0.00 | 0.00 | 82 | 1011.4 |
| 20260905032659 | 85 | 143 | 2.0 | 4.0 | 0.00 | 0.00 | 0.00 | 82 | 1011.4 |
| 20260905032157 | 86 | 154 | 2.0 | 4.0 | 0.00 | 0.00 | 0.00 | 81 | 1011.4 |
| 20260905031659 | 86 | 112 | 2.0 | 7.0 | 0.00 | 0.00 | 0.00 | 81 | 1011.5 |
| 20260905031155 | 86 | 122 | 2.0 | 7.0 | 0.00 | 0.00 | 0.00 | 81 | 1011.5 |
| 20260905030657 | 86 | 161 | 2.0 | 6.0 | 0.00 | 0.00 | 0.00 | 81 | 1011.4 |
| 20260905030155 | 86 | 159 | 2.0 | 6.0 | 0.00 | 0.00 | 0.00 | 81 | 1011.4 |
| 20260905025657 | 86 | 128 | 2.0 | 6.0 | 0.00 | 0.00 | 0.00 | 80 | 1011.3 |
| 20260905024657 | 86 | 108 | 2.0 | 6.0 | 0.00 | 0.00 | 0.00 | 79 | 1011.0 |
| 20260905024155 | 86 | 56 | 2.0 | 6.0 | 0.00 | 0.00 | 0.00 | 79 | 1011.0 |
| 20260905023657 | 86 | 156 | 2.0 | 6.0 | 0.00 | 0.00 | 0.00 | 79 | 1011.0 |
| 20260905023156 | 86 | 127 | 2.0 | 5.0 | 0.00 | 0.00 | 0.00 | 79 | 1011.0 |
| 20260905022657 | 86 | 135 | 3.0 | 5.0 | 0.00 | 0.00 | 0.00 | 78 | 1011.0 |
| 20260905021654 | 86 | 125 | 2.0 | 7.0 | 0.00 | 0.00 | 0.00 | 78 | 1010.7 |
| 20260905020655 | 87 | 150 | 3.0 | 8.0 | 0.00 | 0.00 | 0.00 | 77 | 1010.4 |
| 20260905020153 | 87 | 114 | 3.0 | 7.0 | 0.00 | 0.00 | 0.00 | 76 | 1010.5 |
| 20260905015655 | 87 | 111 | 3.0 | 9.0 | 0.00 | 0.00 | 0.00 | 76 | 1010.3 |
| 20260905015153 | 87 | 137 | 3.0 | 11.0 | 0.00 | 0.00 | 0.00 | 76 | 1010.3 |
| 20260905014654 | 87 | 117 | 3.0 | 11.0 | 0.00 | 0.00 | 0.00 | 76 | 1010.2 |
| 20260905014153 | 87 | 138 | 3.0 | 6.0 | 0.00 | 0.00 | 0.00 | 75 | 1010.2 |
| 20260905013153 | 87 | 110 | 3.0 | 10.0 | 0.00 | 0.00 | 0.00 | 75 | 1010.0 |
| 20260905012655 | 87 | 147 | 3.0 | 8.0 | 0.00 | 0.00 | 0.00 | 76 | 1010.0 |
| 20260905012153 | 87 | 156 | 4.0 | 9.0 | 0.00 | 0.00 | 0.00 | 76 | 1010.0 |
| 20260905011150 | 87 | 166 | 4.0 | 11.0 | 0.00 | 0.00 | 0.00 | 76 | 1010.0 |
| 20260905010657 | 87 | 118 | 4.0 | 9.0 | 0.00 | 0.00 | 0.00 | 75 | 1009.9 |
| 20260905010152 | 88 | 144 | 4.0 | 11.0 | 0.00 | 0.00 | 0.00 | 74 | 1009.9 |
| 20260905005655 | 88 | 125 | 4.0 | 11.0 | 0.00 | 0.00 | 0.00 | 74 | 1010.0 |
| 20260905005150 | 88 | 122 | 4.0 | 10.0 | 0.00 | 0.00 | 0.00 | 72 | 1010.0 |
| 20260905004652 | 88 | 180 | 6.0 | 6.0 | 0.00 | 0.00 | 0.00 | 72 | 1009.9 |
| 20260905003938 | 88 | 112 | 4.0 | 9.0 | 0.00 | 0.00 | 0.00 | 72 | 1009.9 |
| 20260905003437 | 88 | 124 | 4.0 | 11.0 | 0.00 | 0.00 | 0.00 | 71 | 1009.7 |
| 20260905002438 | 89 | 113 | 5.0 | 12.0 | 0.00 | 0.00 | 0.00 | 70 | 1009.7 |
| 20260905001938 | 89 | 64 | 5.0 | 12.0 | 0.00 | 0.00 | 0.00 | 70 | 1009.6 |
| 20260905000935 | 89 | 188 | 4.0 | 10.0 | 0.00 | 0.00 | 0.00 | 69 | 1009.6 |
| 20260905000435 | 89 | 122 | 5.0 | 11.0 | 0.00 | 0.00 | 0.00 | 68 | 1009.5 |
| 20260904235933 | 90 | 121 | 5.0 | 11.0 | 0.00 | 0.00 | 0.00 | 67 | 1009.4 |
| 20260904235429 | 90 | 121 | 4.0 | 10.0 | 0.00 | 0.00 | 0.00 | 67 | 1009.3 |
| 20260904234929 | 91 | 131 | 4.0 | 9.0 | 0.00 | 0.00 | 0.00 | 66 | 1009.4 |
| 20260904234427 | 91 | 117 | 4.0 | 9.0 | 0.00 | 0.00 | 0.00 | 65 | 1009.4 |
| 20260904233926 | 91 | 99 | 5.0 | 11.0 | 0.00 | 0.00 | 0.00 | 65 | 1009.3 |
| 20260904233427 | 91 | 158 | 5.0 | 11.0 | 0.00 | 0.00 | 0.00 | 65 | 1009.3 |
| 20260904232926 | 91 | 116 | 5.0 | 10.0 | 0.00 | 0.00 | 0.00 | 64 | 1009.3 |
| 20260904232426 | 91 | 167 | 5.0 | 13.0 | 0.00 | 0.00 | 0.00 | 63 | 1009.3 |
| 20260904231926 | 91 | 111 | 6.0 | 13.0 | 0.00 | 0.00 | 0.00 | 65 | 1009.2 |
| 20260904230927 | 92 | 130 | 5.0 | 14.0 | 0.00 | 0.00 | 0.00 | 63 | 1009.2 |
| 20260904230427 | 92 | 80 | 5.0 | 14.0 | 0.00 | 0.00 | 0.00 | 63 | 1009.2 |
| 20260904225927 | 92 | 136 | 5.0 | 13.0 | 0.00 | 0.00 | 0.00 | 64 | 1009.1 |
| 20260904225426 | 92 | 148 | 5.0 | 11.0 | 0.00 | 0.00 | 0.00 | 64 | 1009.1 |
| 20260904224927 | 92 | 96 | 4.0 | 10.0 | 0.00 | 0.00 | 0.00 | 63 | 1009.2 |
| 20260904224427 | 92 | 157 | 5.0 | 12.0 | 0.00 | 0.00 | 0.00 | 62 | 1009.2 |
| 20260904223927 | 93 | 131 | 5.0 | 13.0 | 0.00 | 0.00 | 0.00 | 63 | 1009.1 |
| 20260904223427 | 93 | 120 | 5.0 | 13.0 | 0.00 | 0.00 | 0.00 | 61 | 1009.0 |
| 20260904222925 | 94 | 144 | 5.0 | 9.0 | 0.00 | 0.00 | 0.00 | 60 | 1009.0 |
| 20260904222424 | 94 | 110 | 5.0 | 11.0 | 0.00 | 0.00 | 0.00 | 60 | 1008.9 |
| 20260904221925 | 94 | 188 | 5.0 | 11.0 | 0.00 | 0.00 | 0.00 | 59 | 1008.9 |
| 20260904221425 | 94 | 150 | 5.0 | 11.0 | 0.00 | 0.00 | 0.00 | 59 | 1008.9 |
| 20260904220924 | 94 | 107 | 4.0 | 11.0 | 0.00 | 0.00 | 0.00 | 57 | 1008.9 |
| 20260904220425 | 94 | 124 | 5.0 | 11.0 | 0.00 | 0.00 | 0.00 | 58 | 1009.0 |
| 20260904215925 | 94 | 127 | 5.0 | 11.0 | 0.00 | 0.00 | 0.00 | 58 | 1008.9 |
| 20260904215425 | 95 | 121 | 4.0 | 12.0 | 0.00 | 0.00 | 0.00 | 58 | 1008.8 |
| 20260904214925 | 95 | 114 | 4.0 | 12.0 | 0.00 | 0.00 | 0.00 | 55 | 1008.9 |
| 20260904214425 | 95 | 96 | 5.0 | 9.0 | 0.00 | 0.00 | 0.00 | 56 | 1008.9 |
| 20260904213925 | 95 | 312 | 4.0 | 9.0 | 0.00 | 0.00 | 0.00 | 57 | 1008.9 |
| 20260904213426 | 95 | 131 | 4.0 | 10.0 | 0.00 | 0.00 | 0.00 | 57 | 1009.0 |
| 20260904212922 | 95 | 80 | 4.0 | 10.0 | 0.00 | 0.00 | 0.00 | 55 | 1008.9 |
| 20260904212422 | 95 | 102 | 4.0 | 11.0 | 0.00 | 0.00 | 0.00 | 56 | 1009.0 |
| 20260904211921 | 95 | 132 | 4.0 | 11.0 | 0.00 | 0.00 | 0.00 | 55 | 1009.0 |
| 20260904211421 | 96 | 149 | 4.0 | 12.0 | 0.00 | 0.00 | 0.00 | 55 | 1009.1 |
| 20260904210920 | 96 | 152 | 4.0 | 12.0 | 0.00 | 0.00 | 0.00 | 54 | 1009.2 |
| 20260904210421 | 96 | 190 | 5.0 | 11.0 | 0.00 | 0.00 | 0.00 | 53 | 1009.2 |
| 20260904204921 | 96 | 81 | 4.0 | 11.0 | 0.00 | 0.00 | 0.00 | 54 | 1009.1 |
| 20260904204422 | 96 | 168 | 4.0 | 11.0 | 0.00 | 0.00 | 0.00 | 55 | 1009.1 |
| 20260904203921 | 96 | 130 | 5.0 | 11.0 | 0.00 | 0.00 | 0.00 | 56 | 1009.1 |
| 20260904203417 | 96 | 107 | 5.0 | 11.0 | 0.00 | 0.00 | 0.00 | 57 | 1009.1 |
| 20260904202916 | 97 | 163 | 4.0 | 11.0 | 0.00 | 0.00 | 0.00 | 56 | 1009.1 |
| 20260904202415 | 97 | 131 | 4.0 | 11.0 | 0.00 | 0.00 | 0.00 | 55 | 1009.1 |
| 20260904201916 | 97 | 85 | 5.0 | 11.0 | 0.00 | 0.00 | 0.00 | 56 | 1009.2 |
| 20260904201415 | 97 | 81 | 6.0 | 12.0 | 0.00 | 0.00 | 0.00 | 55 | 1009.2 |
| 20260904200916 | 98 | 105 | 5.0 | 12.0 | 0.00 | 0.00 | 0.00 | 54 | 1009.2 |
| 20260904195912 | 98 | 187 | 4.0 | 10.0 | 0.00 | 0.00 | 0.00 | 53 | 1009.3 |
| 20260904195412 | 98 | 155 | 3.0 | 8.0 | 0.00 | 0.00 | 0.00 | 52 | 1009.3 |
| 20260904194912 | 98 | 129 | 3.0 | 7.0 | 0.00 | 0.00 | 0.00 | 50 | 1009.3 |
| 20260904194411 | 98 | 93 | 3.0 | 7.0 | 0.00 | 0.00 | 0.00 | 52 | 1009.5 |
| 20260904193912 | 98 | 141 | 3.0 | 7.0 | 0.00 | 0.00 | 0.00 | 50 | 1009.4 |
| 20260904193412 | 98 | 174 | 3.0 | 8.0 | 0.00 | 0.00 | 0.00 | 51 | 1009.5 |
| 20260904192913 | 98 | 132 | 3.0 | 8.0 | 0.00 | 0.00 | 0.00 | 51 | 1009.6 |
| 20260904192411 | 98 | 174 | 3.0 | 9.0 | 0.00 | 0.00 | 0.00 | 51 | 1009.6 |
| 20260904191912 | 98 | 204 | 4.0 | 9.0 | 0.00 | 0.00 | 0.00 | 51 | 1009.6 |
| 20260904191411 | 98 | 339 | 3.0 | 9.0 | 0.00 | 0.00 | 0.00 | 49 | 1009.7 |
| 20260904190913 | 98 | 84 | 3.0 | 11.0 | 0.00 | 0.00 | 0.00 | 49 | 1009.7 |
| 20260904190411 | 99 | 128 | 3.0 | 11.0 | 0.00 | 0.00 | 0.00 | 49 | 1009.8 |
| 20260904185912 | 98 | 144 | 3.0 | 7.0 | 0.00 | 0.00 | 0.00 | 49 | 1009.7 |
| 20260904184410 | 98 | 186 | 4.0 | 9.0 | 0.00 | 0.00 | 0.00 | 49 | 1010.0 |
| 20260904183909 | 97 | 144 | 4.0 | 12.0 | 0.00 | 0.00 | 0.00 | 50 | 1010.0 |
| 20260904183410 | 97 | 77 | 4.0 | 12.0 | 0.00 | 0.00 | 0.00 | 50 | 1010.0 |
| 20260904181910 | 98 | 245 | 4.0 | 11.0 | 0.00 | 0.00 | 0.00 | 50 | 1010.3 |
| 20260904181409 | 98 | 166 | 3.0 | 8.0 | 0.00 | 0.00 | 0.00 | 48 | 1010.3 |
| 20260904180410 | 98 | 118 | 3.0 | 9.0 | 0.00 | 0.00 | 0.00 | 48 | 1010.5 |
| 20260904175410 | 97 | 199 | 3.0 | 9.0 | 0.00 | 0.00 | 0.00 | 49 | 1010.5 |
| 20260904174910 | 97 | 122 | 4.0 | 9.0 | 0.00 | 0.00 | 0.00 | 49 | 1010.6 |
| 20260904174410 | 97 | 151 | 4.0 | 9.0 | 0.00 | 0.00 | 0.00 | 49 | 1010.7 |
| 20260904173912 | 97 | 182 | 3.0 | 10.0 | 0.00 | 0.00 | 0.00 | 50 | 1010.7 |
| 20260904173410 | 96 | 118 | 4.0 | 10.0 | 0.00 | 0.00 | 0.00 | 50 | 1010.9 |
| 20260904172404 | 96 | 139 | 3.0 | 9.0 | 0.00 | 0.00 | 0.00 | 51 | 1011.0 |
| 20260904171904 | 96 | 132 | 4.0 | 10.0 | 0.00 | 0.00 | 0.00 | 51 | 1011.1 |
| 20260904170905 | 96 | 145 | 3.0 | 7.0 | 0.00 | 0.00 | 0.00 | 51 | 1011.2 |
| 20260904164901 | 95 | 140 | 4.0 | 11.0 | 0.00 | 0.00 | 0.00 | 53 | 1011.3 |
| 20260904164402 | 95 | 136 | 4.0 | 8.0 | 0.00 | 0.00 | 0.00 | 54 | 1011.4 |
| 20260904163902 | 94 | 123 | 4.0 | 8.0 | 0.00 | 0.00 | 0.00 | 54 | 1011.5 |
| 20260904163402 | 94 | 188 | 3.0 | 6.0 | 0.00 | 0.00 | 0.00 | 54 | 1011.5 |
| 20260904162901 | 94 | 106 | 3.0 | 7.0 | 0.00 | 0.00 | 0.00 | 56 | 1011.5 |
| 20260904161902 | 93 | 198 | 3.0 | 10.0 | 0.00 | 0.00 | 0.00 | 57 | 1011.6 |
| 20260904161402 | 93 | 191 | 4.0 | 10.0 | 0.00 | 0.00 | 0.00 | 57 | 1011.5 |
| 20260904160903 | 92 | 182 | 4.0 | 10.0 | 0.00 | 0.00 | 0.00 | 57 | 1011.5 |
| 20260904160358 | 92 | 115 | 5.0 | 13.0 | 0.00 | 0.00 | 0.00 | 58 | 1011.5 |
| 20260904155914 | 92 | 164 | 5.0 | 13.0 | 0.00 | 0.00 | 0.00 | 60 | 1011.5 |
| 20260904155358 | 92 | 94 | 4.0 | 10.0 | 0.00 | 0.00 | 0.00 | 60 | 1011.5 |
| 20260904154900 | 92 | 159 | 3.0 | 10.0 | 0.00 | 0.00 | 0.00 | 59 | 1011.5 |
| 20260904154357 | 91 | 106 | 3.0 | 11.0 | 0.00 | 0.00 | 0.00 | 61 | 1011.5 |
| 20260904153900 | 91 | 155 | 4.0 | 11.0 | 0.00 | 0.00 | 0.00 | 63 | 1011.5 |
| 20260904153359 | 90 | 195 | 4.0 | 12.0 | 0.00 | 0.00 | 0.00 | 64 | 1011.4 |
| 20260904152901 | 90 | 217 | 5.0 | 12.0 | 0.00 | 0.00 | 0.00 | 66 | 1011.4 |
| 20260904151900 | 89 | 136 | 5.0 | 12.0 | 0.00 | 0.00 | 0.00 | 68 | 1011.4 |
| 20260904151358 | 89 | 160 | 5.0 | 12.0 | 0.00 | 0.00 | 0.00 | 69 | 1011.3 |
| 20260904150901 | 89 | 179 | 4.0 | 12.0 | 0.00 | 0.00 | 0.00 | 70 | 1011.3 |
| 20260904150359 | 88 | 154 | 5.0 | 11.0 | 0.00 | 0.00 | 0.00 | 71 | 1011.3 |
| 20260904145858 | 88 | 207 | 5.0 | 11.0 | 0.00 | 0.00 | 0.00 | 73 | 1011.3 |
| 20260904145358 | 88 | 170 | 4.0 | 10.0 | 0.00 | 0.00 | 0.00 | 74 | 1011.3 |
| 20260904144855 | 87 | 157 | 4.0 | 10.0 | 0.00 | 0.00 | 0.00 | 75 | 1011.4 |
| 20260904144356 | 87 | 112 | 5.0 | 13.0 | 0.00 | 0.00 | 0.00 | 76 | 1011.4 |
| 20260904143855 | 87 | 179 | 5.0 | 13.0 | 0.00 | 0.00 | 0.00 | 76 | 1011.3 |
| 20260904143355 | 87 | 179 | 6.0 | 12.0 | 0.00 | 0.00 | 0.00 | 78 | 1011.3 |
| 20260904142856 | 87 | 188 | 5.0 | 12.0 | 0.00 | 0.00 | 0.00 | 78 | 1011.2 |
| 20260904142356 | 87 | 126 | 4.0 | 8.0 | 0.00 | 0.00 | 0.00 | 78 | 1011.2 |
| 20260904141856 | 87 | 175 | 3.0 | 8.0 | 0.00 | 0.00 | 0.00 | 78 | 1011.2 |
| 20260904141355 | 87 | 137 | 3.0 | 7.0 | 0.00 | 0.00 | 0.00 | 79 | 1011.2 |
| 20260904140856 | 87 | 182 | 3.0 | 7.0 | 0.00 | 0.00 | 0.00 | 79 | 1011.3 |
| 20260904140356 | 87 | 156 | 3.0 | 7.0 | 0.00 | 0.00 | 0.00 | 79 | 1011.3 |
| 20260904135856 | 86 | 154 | 3.0 | 6.0 | 0.00 | 0.00 | 0.00 | 81 | 1011.2 |
| 20260904135357 | 86 | 120 | 2.0 | 5.0 | 0.00 | 0.00 | 0.00 | 82 | 1011.2 |
| 20260904134856 | 86 | 154 | 2.0 | 6.0 | 0.00 | 0.00 | 0.00 | 82 | 1011.2 |
| 20260904134343 | 85 | 127 | 3.0 | 6.0 | 0.00 | 0.00 | 0.00 | 84 | 1011.2 |